Regional Weather Roundup
Issued by NWS Kansas City/Pleasant Hill, MO

Home | Current Version | Previous Version | Graphics & Text | Print | Product List | Glossary Off
Versions: 1 2 3 4 5 6 7 8 9 10 11 12 13 14 15 16 17 18 19 20 21 22 23 24 25 26 27

000
ASUS43 KEAX 270410
RWREAX

WEATHER ROUNDUP FOR EASTERN KANSAS AND NORTHWEST MISSOURI
NATIONAL WEATHER SERVICE KANSAS CITY/PLEASANT HILL MO
1100 PM CDT SUN MAR 26 2017

KSZ040-057-103>105-MOZ028-029-037-043-270500-
...KANSAS CITY METROPOLITAN AREA...

CITY           SKY/WX    TMP DP  RH WIND       PRES   REMARKS
K.C. INTL      CLOUDY    48  45  89 SE8       29.92R
K.C. DOWNTOWN  LGT RAIN  51  45  79 SE7       29.93R
LEES SUMMIT    CLOUDY    49  46  90 E5        29.93R
OLATHE - IXD   LGT RAIN  49  46  90 NE12      29.89F
OLATHE - OJC   LGT RAIN  48  47  96 NE10      29.89R
LAWRENCE       LGT RAIN  48  48 100 E3        29.92R

$$

MOZ001>008-011>017-020>025-030>033-038>040-044>046-053-054-270500-
...NORTHERN AND CENTRAL MISSOURI...

CITY           SKY/WX    TMP DP  RH WIND       PRES   REMARKS
ST. JOSEPH     CLOUDY    46  45  96 NE7       29.92F
WARRENSBURG    CLOUDY    50  45  81 NE7       29.92F
WHITEMAN AFB   CLOUDY    50  50 100 N14       29.89F
CLINTON        CLOUDY    52  48  87 NE8       29.90F
SEDALIA        CLOUDY    52  49  89 NE3       29.94S
WARSAW         NOT AVBL
CHILLICOTHE      N/A     49  44  83 N5        29.94F
KIRKSVILLE     CLOUDY    48  44  86 CALM      29.94F

$$

MOZ041-047>049-056>058-063>065-088>090-097-270500-
...EASTERN AND SOUTHERN MISSOURI...

CITY           SKY/WX    TMP DP  RH WIND       PRES   REMARKS
ST. LOUIS INTL MOCLDY    55  48  77 NE5       29.93F
SPIRIT OF STL  CLOUDY    50  50 100 CALM      29.93R
COLUMBIA       CLOUDY    51  48  89 CALM      29.94R
JEFFERSON CITY CLOUDY    55  48  77 CALM      29.94R
ROLLA          PTCLDY    54  49  83 E5        29.90S
OSAGE BEACH    CLOUDY   N/A N/A N/A CALM      29.93S
SPRINGFIELD    RAIN      58  53  84 CALM      29.92R
JOPLIN         CLOUDY    59  55  87 SE21G30   29.78F
WEST PLAINS    CLOUDY    59  48  67 SE5       29.92R

$$

IAZ060-094-KSZ022-034>040-054-083-096-NEZ052-066-093-270500-
...KANSAS...SOUTHEAST NEBRASKA AND IOWA...

CITY           SKY/WX    TMP DP  RH WIND       PRES   REMARKS
TOPEKA         HVY RAIN  48  48 100 NE8       29.91R FOG
MANHATTAN      LGT RAIN  48  46  93 NE5       29.93R
EMPORIA        RAIN      47  47 100 N6        29.90R FOG
CHANUTE        CLOUDY    54  48  80 NE14      29.80F
WICHITA        CLOUDY    51  49  92 MISG      29.82R
OMAHA          CLOUDY    48  42  80 N3        29.94F
LINCOLN        CLOUDY    47  43  86 NE6       29.95F
FALLS CITY     CLOUDY    47  44  90 N6        29.92F
LAMONI         CLOUDY    47  43  86 N6        29.93F
DES MOINES     CLOUDY    46  44  93 N3        29.94F

$$





USA.gov is the U.S. government's official web portal to all federal, state and local government web resources and services.